Terminal Aerodrome Forecast
Issued by NWS Jackson, KY

Home | Current Version | Previous Version | Text Only | Print | Product List | Glossary On
Versions: 1 2 3 4 5 6 7 8 9 10 11 12 13
000
FTUS43 KJKL 221118 AAB
TAFJKL
TAF AMD
KJKL 221118Z 2211/2306 00000KT 1SM BR SCT025
     FM221300 VRB03KT P6SM SCT040
     FM221900 VRB06KT P6SM VCSH BKN060
     FM230100 VRB03KT P6SM SCT150=

USA.gov is the U.S. government's official web portal to all federal, state and local government web resources and services.